Location: Chippewa Lake
(41.0698°N, 81.9010°W)
Time: 12:00:55
(UTC+00:00)

Spot 2 Rocket - Pass Details

Date: 02 October 2021
Orbit: 758 x 771 km, 98.5° (Epoch: 23 October)

Event Time Altitude Azimuth Distance (km) Brightness Sun altitude
Exits shadow 02:34:30 12° 358° (N) 2,156 6.1 -37.8°
Drops below altitude 10° 02:34:53 10° 357° (N) 2,299 6.3 -37.8°
Sets 02:37:14 0° 352° (N) 3,230 7.2 -38.2°
